Regional Weather Roundup
Issued by NWS Newport/Morehead, NC

Current Version | Previous Version | Text Only | Print | Product List | Glossary On
Versions: 1 2 3 4 5 6 7 8 9 10 11 12 13 14 15 16 17 18 19 20 21 22 23 24 25 26 27 28 29 30 31 32 33 34 35 36 37 38 39 40 41 42 43 44 45 46 47 48 49 50
000
ASUS42 KMHX 080412
RWRMHX
WEATHER ROUNDUP FOR EASTERN NORTH CAROLINA
NATIONAL WEATHER SERVICE NEWPORT/MOREHEAD CITY NC
1100 PM EST WED DEC 07 2016

NOTE: "FAIR" INDICATES FEW OR NO CLOUDS BELOW 12,000 FEET
WITH NO SIGNIFICANT WEATHER AND/OR OBSTRUCTIONS TO VISIBILITY

NCZ015>017-031-032-045>047-102-103-080500-
NORTH COAST

CITY           SKY/WX    TMP DP  RH WIND       PRES   REMARKS
EDENTON        CLEAR     45  43  93 CALM      30.10F
ELIZABETH CITY PTCLDY    42  41  96 CALM      30.09F
KITTY HAWK     CLEAR     48  45  87 CALM      30.08F
MANTEO         CLEAR     42  42 100 CALM      30.10S

$$

NCZ045>047-081-094-103-104-080500-
CENTRAL COAST

CITY           SKY/WX    TMP DP  RH WIND       PRES   REMARKS
FRISCO         NOT AVBL

$$

NCZ095-097-098-100-101-080500-
SOUTHERN COAST

CITY           SKY/WX    TMP DP  RH WIND       PRES   REMARKS
BEAUFORT       CLEAR     44  43  96 NE3       30.09S
CEDAR ISLAND   NOT AVBL
JACKSONVILLE   MOCLDY    44  44 100 CALM      30.09R
PINEY ISLAND   CLEAR    N/A N/A N/A E7        30.09S
WILMINGTON     CLEAR     45  45 100 CALM      30.09S


$$

NCZ011>013-027>030-043-044-078>080-089-090>093-098-080500-
COASTAL PLAIN

CITY           SKY/WX    TMP DP  RH WIND       PRES   REMARKS
AHOSKIE        MOCLDY    41  39  93 CALM      30.11R
CLINTON        CLOUDY    48  47  97 CALM      30.08S
ELIZABETHTOWN  MOCLDY    49  47  95 CALM      30.08S
GOLDSBORO      CLOUDY    45  45 100 CALM      30.07S
GREENVILLE     CLEAR     41  41 100 CALM      30.10S FOG
HAVELOCK       CLEAR     43  42  97 CALM      30.10S
KENANSVILLE    NOT AVBL
KINSTON        MOCLDY    42  42  99 CALM      30.09F
NEW BERN       CLOUDY    45  43  93 CALM      30.10F
RICHLANDS      MOCLDY    43  43 100 CALM      30.10R
ROCKY MOUNT    CLOUDY    41  41 100 CALM      30.09R
WASHINGTON     PTCLDY    38  38  97 CALM      30.11R
WHITEVILLE     PTCLDY    46  45  96 CALM      30.08S

$$

AMZ130-135-150-152-154-156-158-170-250-252-270-ANZ085-086-088-633-658-670-080500-
MARINE OBSERVATIONS

STATION/POSITION TIME  TEMP    WIND        PRES    WAVE   SWELL
                       AIR SEA DIR/SP/G            HT/PER HT/PER
                 (UTC) (F)     (DEG/KT/KT) (MB)    (FT/S) (FT/S)
CHESAPEAKE LIGHT NOT AVBL
64 E VA BEACH    0350   53 58  350/ 12/ 14 1018.0    7/ 9   7/ 9
DUCK             0348   51 54   20/  7/  8 1018.2
2 E DUCK         NOT AVBL
OREGON INLET     0336   49 55  340/  3/  4 1018.9
13E OREGON INLT  NOT AVBL
HATTERAS CG      0348   51 60   30/  3/  4 1018.6
DIAMOND BUOY     0350   54 78   10/  6/ 10 1018.6    6/11   7/11
CAPE LOOKOUT     0400   55      60/  6/  7 1018.3
BEAUFORT LAB     0348   49 55   40/  3/  4 1017.6
30 SE NEW RVR IN 0308   57 70   70/  2/  8 1018.6
30 SE NEW RVR IN NOT AVBL
27 SE WRIGHTSVLE 0308   60 69  300/  2/  4 1018.1
5 SE WRIGHTSVLE  0308   55 61  210/  2/  4 1018.2
225 S CAPE HAT   0350   70 74  300/  6/  8 1018.0    6/ 7   7/ 7
41 SE CHARLESTON 0350   62 74  250/  8/ 12 1018.4    2/ 7   2/ 7

$$




USA.gov is the U.S. government's official web portal to all federal, state and local government web resources and services.